This demonstration page uses our WeatherBlox Daily Observations layout. Learn more.

Left ArrowRight Arrow

Hourly Observations for April 2, 2021

Temp ( °F °C ) Dew Point ( °F °C ) Humidity (%) Winds ( mph kmh ) Pressure ( in mb ) Visibility ( mi km ) Precip ( " mm )
12:56 am 00:56 Clear 46 7.8 28 -2.2 50 50 S 16 26 30.15 1021 10 16 0.00 0.00
1:56 am 01:56 Clear 44 6.7 28 -2.2 53 53 S 15 24 30.13 1020 10 16 0.00 0.00
2:56 am 02:56 Clear 43 6.1 27 -2.8 53 53 S 21 33 30.10 1019 10 16 0.00 0.00
3:56 am 03:56 Clear 41 5 26 -3.3 55 55 S 16 26 30.09 1019 10 16 0.00 0.00
4:56 am 04:56 Clear 40 4.4 26 -3.3 58 58 S 13 20 30.08 1019 10 16 0.00 0.00
5:56 am 05:56 Clear 39 3.9 27 -2.8 62 62 S 17 28 30.06 1018 10 16 0.00 0.00
6:56 am 06:56 Clear 39 3.9 27 -2.8 62 62 S 16 26 30.06 1018 10 16 0.00 0.00
7:56 am 07:56 Sunny 40 4.4 28 -2.2 63 63 S 14 22 30.07 1018 10 16 0.00 0.00
8:56 am 08:56 Sunny 44 6.7 30 -1.1 58 58 S 16 26 30.07 1018 10 16 0.00 0.00
9:56 am 09:56 Sunny 50 10 30 -1.1 46 46 SSW 23 37 30.06 1018 10 16 0.00 0.00
10:56 am 10:56 Sunny 55 12.8 30 -1.1 38 38 SSW 23 37 30.04 1017 10 16 0.00 0.00
11:56 am 11:56 Sunny 59 15 31 -0.6 35 35 SSW 23 37 30.02 1017 10 16 0.00 0.00
12:56 pm 12:56 Sunny 65 18.3 30 -1.1 27 27 S 23 37 29.99 1016 10 16 0.00 0.00
1:56 pm 13:56 Sunny 69 20.6 30 -1.1 23 23 SSW 21 33 29.98 1015 10 16 0.00 0.00
2:56 pm 14:56 Sunny 72 22.2 30 -1.1 21 21 SSW 22 35 29.94 1014 10 16 0.00 0.00
3:56 pm 15:56 Sunny 75 23.9 31 -0.6 20 20 SSW 29 46 29.93 1014 10 16 0.00 0.00
4:56 pm 16:56 Sunny 76 24.4 30 -1.1 18 18 SSW 28 44 29.92 1013 10 16 0.00 0.00
5:56 pm 17:56 Sunny 76 24.4 31 -0.6 19 19 SSW 28 44 29.91 1013 10 16 0.00 0.00
6:56 pm 18:56 Sunny 73 22.8 30 -1.1 20 20 SSW 24 39 29.93 1013 10 16 0.00 0.00
7:56 pm 19:56 Sunny 67 19.4 32 0 27 27 S 16 26 29.93 1014 10 16 0.00 0.00
8:56 pm 20:56 Clear 62 16.7 33 0.6 34 34 S 20 31 29.95 1014 10 16 0.00 0.00
9:56 pm 21:56 Clear 60 15.6 33 0.6 36 36 S 22 35 29.97 1015 10 16 0.00 0.00
10:56 pm 22:56 Clear 59 15 33 0.6 38 38 S 18 30 29.98 1015 10 16 0.00 0.00
11:56 pm 23:56 Clear 56 13.3 34 1.1 44 44 SSW 16 26 30.00 1016 10 16 0.00 0.00

Powered by AerisWeather